Location: Unspecified
(0.0000°N, 0.0000°E)
Time: 01:12:54
(UTC+00:00)

Traac - Pass Details

Date: 18 December 2025
Orbit: 951 x 1102 km, 32.4° (Epoch: 19 January)

Event Time Altitude Azimuth Distance (km) Brightness Sun altitude
Exits shadow 02:44:58 12° 60° (ENE) 2,731 10.5 -42.9°
Drops below altitude 10° 02:45:47 10° 66° (ENE) 2,881 10.7 -42.7°
Sets 02:49:48 0° 87° (E) 3,865 11.7 -41.9°
